Weather in Orlovka

Russia / Novosibirsk Oblast     54°28′47″N   76°39′54″E
temp.,
°C
wind,
m/s
gust,
m/s
humid.,
%
clouds,
%
prec.,
mm/h
press.,
hPa
HPBL,
m
3 march, wed
wed301:00−16sw339790 0.1 101777
04:00−18ssw339779 0.1 101633
07:00−19ssw349881 0.1 101757
10:00−18ssw359792 0.0 1016108
13:00−13ssw589496 0.1 1017347
16:00−13ssw61091100 0.0 1017429
19:00−14ssw6139298 0.0 1017469
22:00−12ssw71393100 0.1 1016488
4 march, thu
thu401:00−9ssw71393100 0.3 1015524
04:00−9ssw81493100 0.4 1014469
07:00−7ssw81494100 0.9 1013521
10:00−4ssw91592100 0.5 1012726
13:00−3ssw91494100 0.8 1012717
16:00−2ssw91589100 0.4 1010822
19:00−2ssw91590100 0.6 1009930
22:00−2ssw91691100 0.3 1008876
5 march, fri
fri501:00−2ssw91687100 0.3 1007759
04:00−2ssw91595100 0.6 1005786
07:00−2wsw71387100 1.4 1006720
10:00−9wsw7139084 0.0 1009335
13:00−8sw8138559 0.0 1013475
16:00−6sw101693100 0.4 10131086
19:00−5wsw91588100 1.1 1014893
22:00−6sw71488100 0.0 1015581
6 march, sat
sat601:00−6sw7149499 0.1 1015518
04:00−3sw81494100 0.4 1014769
07:00−4sw101591100 1.4 1013791
10:00−4sw101691100 0.3 1012886
13:00−4sw111691100 0.6 1011938
16:00−2sw111693100 0.4 10101052
19:00−1sw101686100 0.5 1010942
22:00−2wsw81688100 0.0 1011718
7 march, sun
sun701:00−3wsw51192100 0.0 1013348
04:00−5sw4995100 0.0 1013227
07:00−4ssw5996100 0.4 1012312
10:00−4ssw81493100 0.7 1010520
13:00−2sw91592100 0.8 1008674
16:00−2sw91589100 0.0 1008876
19:00−1sw81489100 0.1 1008824
22:000sw81489100 0.1 1009757